Regional Weather Roundup
Issued by NWS Albany, NY

Home | Current Version | Previous Version | Text Only | Print | Product List | Glossary On
Versions: 1 2 3 4 5 6 7 8 9 10 11 12 13 14 15 16 17 18 19 20 21 22 23 24 25 26 27 28 29 30 31 32 33 34 35 36 37 38 39 40 41 42 43 44 45 46 47 48 49 50
000
ASUS41 KALY 010410
RWRALY

NEW YORK STATE HOURLY WEATHER ROUNDUP
NATIONAL WEATHER SERVICE ALBANY NY
1100 PM EST SAT FEB 28 2015

NOTE: "FAIR" INDICATES FEW OR NO CLOUDS BELOW 12,000 FEET WITH NO
SIGNIFICANT WEATHER AND/OR NO OBSTRUCTIONS TO VISIBILITY.

NYZ032-033-038>043-046>054-057>066-NYZ062>081-010500-
EAST


CITY           SKY/WX    TMP DP  RH WIND       PRES   REMARKS
ALBANY         CLEAR     13   1  59 CALM      30.73S
GLENS FALLS    CLEAR     -3  -8  79 CALM      30.70S
POUGHKEEPSIE   CLEAR      6  -3  66 CALM      30.74S
NEWBURGH       CLEAR      7   0  72 W5        30.71F WCI  -2
MONTGOMERY     CLEAR      5  -2  72 CALM      30.70F
WHITE PLAINS   CLEAR     12   2  64 NW5       30.70F WCI   4
ISLIP          PTCLDY    17   4  56 CALM      30.73F
NEW YORK CITY  PTCLDY    27   2  34 SW3       30.75S
CENTRAL PARK   CLEAR     27   0  31 W3        30.76S
$$

NYZ005>009-017-018-044>046-055-056-010500-
CENTRAL


CITY           SKY/WX    TMP DP  RH WIND       PRES   REMARKS
FULTON         PTCLDY     3  -4  72 SE3       30.66F
SYRACUSE       CLEAR      3  -3  79 SE6       30.68F WCI  -8
ROME           PTCLDY    -3  -7  82 SE3       30.72F
ELMIRA         CLEAR      1  -5  75 CALM      30.64F
BINGHAMTON     PTCLDY    13  -4  46 S3        30.58F
MONTICELLO     CLEAR     10   0  61 CALM      30.63S
$$

NYZ026>034-041>043-010500-
NORTH


CITY           SKY/WX    TMP DP  RH WIND       PRES   REMARKS
WATERTOWN      CLEAR      3  -2  79 CALM      30.68F
FORT DRUM      NOT AVBL
MASSENA        CLEAR     12   3  67 SW8       30.68S WCI   0
SARANAC LAKE   CLEAR     -9 -13  83 CALM      30.55F
PLATTSBURGH    CLEAR      4   0  83 CALM      30.68S
$$

NYZ001>004-010>016-019>021-010500-
WEST


CITY           SKY/WX    TMP DP  RH WIND       PRES   REMARKS
NIAGARA FALLS  PTCLDY     2  -2  83 E3        30.62F
BUFFALO        PTCLDY     7  -1  70 SE6       30.61F WCI  -3
DUNKIRK        PTCLDY    -5  -9  83 E3        30.60F
JAMESTOWN      PTCLDY    12   0  57 S3        30.49F
WELLSVILLE     PTCLDY    14  -8  37 S5        30.52F WCI   6
ROCHESTER      PTCLDY     5  -3  69 CALM      30.64F
PENN YAN       PTCLDY     6  -1  73 SW6       30.62F WCI  -4
$$

             KEY
       WCI = WIND CHILL INDEX
       VSB = VISIBILITY
       HX  = HEAT INDEX
$$



USA.gov is the U.S. government's official web portal to all federal, state and local government web resources and services.